Location: Mactaquac Provincial Park
(45.9573°N, 66.8897°W)
Time: 20:13:23
(UTC-04:00)

CENTAUR R/B - Visible Passes

Search period start: 01 February 2015 00:00
Search period end: 11 February 2015 00:00
Orbit: 887 x 1302 km, 63.5° (Epoch: 24 January)

Date Brightness Start Highest point End Pass type
(mag) Time Alt. Az. Time Alt. Az. Time Alt. Az.
01 Feb 5.3 02:57:36 12° ESE 02:57:36 12° ESE 02:58:00 10° ESE visible
01 Feb 4.0 04:44:52 32° S 04:44:52 32° S 04:49:04 10° SSE visible
01 Feb 4.7 06:32:08 10° WSW 06:32:08 10° WSW 06:32:31 10° WSW visible
01 Feb 3.4 18:27:45 10° S 18:32:55 29° ESE 18:37:52 13° ENE visible
01 Feb 2.9 20:16:49 10° SW 20:23:05 64° NW 20:25:06 45° NNE visible
01 Feb 4.8 22:09:54 10° WNW 22:12:21 19° NW 22:12:21 19° NW visible
02 Feb 4.8 03:59:26 19° SSE 03:59:26 19° SSE 04:01:17 10° SSE visible
02 Feb 4.6 05:46:42 15° SW 05:46:42 15° SW 05:48:24 10° SSW visible
02 Feb 2.5 19:28:36 10° SW 19:34:52 86° SE 19:39:12 24° NE visible
02 Feb 4.1 21:20:43 10° W 21:26:27 30° NNW 21:26:27 30° NNW visible
03 Feb 4.9 05:01:19 13° SSW 05:01:19 13° SSW 05:02:09 10° S visible
03 Feb 2.7 18:40:50 10° SSW 18:46:50 54° ESE 18:53:13 11° NE visible
03 Feb 3.6 20:31:44 10° WSW 20:37:48 41° NW 20:40:26 30° N visible
03 Feb 5.0 22:25:37 10° WNW 22:27:40 16° NW 22:27:40 16° NW visible
04 Feb 3.1 19:43:04 10° WSW 19:49:19 58° NW 19:54:21 19° NNE visible
04 Feb 4.5 21:36:21 10° WNW 21:41:34 23° NNW 21:41:34 23° NNW visible
05 Feb 2.6 18:54:45 10° SW 19:01:01 86° NW 19:08:03 10° NE visible
05 Feb 4.2 20:47:08 10° W 20:52:47 29° NNW 20:55:23 23° N visible
05 Feb 5.2 22:41:07 10° NW 22:42:36 14° NNW 22:42:36 14° NNW visible
06 Feb 2.7 18:06:51 10° SSW 18:12:57 61° ESE 18:19:44 10° NE visible
06 Feb 3.8 19:58:05 10° WSW 20:04:04 38° NW 20:09:07 16° NNE visible
06 Feb 4.7 21:52:02 10° NW 21:56:20 20° NNW 21:56:20 20° NNW visible
07 Feb 3.3 19:09:19 10° WSW 19:15:32 53° NW 19:22:26 10° NE visible
07 Feb 4.5 21:02:47 10° WNW 21:07:59 22° NNW 21:10:00 20° N visible
07 Feb 5.2 22:56:11 10° NW 22:57:12 13° NNW 22:57:12 13° NNW visible
08 Feb 2.8 18:20:55 10° SW 18:27:12 78° NW 18:34:14 10° NE visible
08 Feb 4.3 20:13:32 10° W 20:19:06 27° NNW 20:23:37 15° NNE visible
08 Feb 4.8 22:07:28 10° NW 22:10:49 18° NNW 22:10:49 18° NNW visible
09 Feb 3.9 19:24:26 10° W 19:30:21 35° NNW 19:36:48 10° NNE visible
09 Feb 4.6 21:18:26 10° NW 21:23:20 20° N 21:24:23 19° N visible
09 Feb 5.3 23:10:52 10° NNW 23:11:35 12° NNW 23:11:35 12° NNW visible
10 Feb 3.5 18:35:36 10° WSW 18:41:46 48° NW 18:48:36 10° NNE visible
10 Feb 4.5 20:29:13 10° WNW 20:34:20 22° NNW 20:37:55 15° NNE visible
10 Feb 4.9 22:22:27 10° NW 22:25:07 18° NNW 22:25:07 18° NNW visible
